Voltar ao catálogo

SL-8 DEB *

AtivoLEO
NORAD 18510·DEBRIS·🇷🇺 Russia

Lançado Jun 1, 1982 de Plesetsk Cosmodrome

Loading…

Próximas Passagens (próximas 24 horas)

TLE

AtualizadoSource: Space-Track

Época: Sep 14, 2026, 13:56 UTC

1 18510U 82051F   26257.58094589  .00001304  00000-0  26944-3 0  9997
2 18510  73.9888 195.6066 0013061 255.5699 279.6149 14.61391216102202

Acompanhe SL-8 DEB * em tempo real com AllMySat

Download on the App Store